This demonstration page uses our WeatherBlox Daily Observations layout. Learn more.

Left ArrowRight Arrow

39.92423, -83.80882

Hourly Observations for January 7, 2021

Temp ( °F °C ) Dew Point ( °F °C ) Humidity (%) Winds ( mph kmh ) Pressure ( in mb ) Visibility ( mi km ) Precip ( " mm )
12:56 am 00:56 Cloudy 33 0.6 32 0 96 96 ENE 5 7 30.32 1027 10 16.0934 0 0
1:56 am 01:56 Cloudy 33 0.6 32 0 96 96 NE 3 6 30.33 1027 10 16.0934 0 0
2:56 am 02:56 Cloudy 33 0.6 31 -0.6 92 92 E 3 6 30.33 1027 10 16.0934 0 0
3:56 am 03:56 Cloudy 32 0 32 0 100 100 Calm 30.32 1027 10 16.0934 0 0
4:56 am 04:56 Cloudy 33 0.6 30 -1.1 89 89 NE 7 11 30.32 1027 10 16.0934 0 0
5:56 am 05:56 Cloudy 32 0 31 -0.6 96 96 NE 6 9 30.32 1027 10 16.0934 0 0
6:56 am 06:56 Cloudy 32 0 32 0 100 100 NE 5 7 30.32 1027 9 14.48406 0 0
7:56 am 07:56 Cloudy 32 0 32 0 100 100 NE 6 9 30.33 1027 7 11.26538 0 0
8:56 am 08:56 Cloudy 33 0.6 32 0 96 96 NE 7 11 30.33 1027 7 11.26538 0 0
9:56 am 09:56 Cloudy 35 1.7 31 -0.6 85 85 ENE 10 17 30.33 1027 10 16.0934 0 0
10:56 am 10:56 Cloudy 36 2.2 30 -1.1 79 79 ENE 12 19 30.33 1027 10 16.0934 0 0
11:56 am 11:56 Cloudy 35 1.7 29 -1.7 78 78 NE 12 19 30.29 1026 10 16.0934 0 0
12:15 pm 12:15 Cloudy 36 2 28 -2 75 75 NE 13 20 30.3 1026 10 16.0934 0 0
12:56 pm 12:56 Cloudy 35 1.7 27 -2.8 72 72 NE 16 26 30.27 1025 10 16.0934 0 0
1:25 pm 13:25 Cloudy 36 2 27 -3 70 70 E 14 22 30.27 1025 10 16.0934 0 0
1:56 pm 13:56 Cloudy 35 1.7 27 -2.8 72 72 ENE 14 22 30.24 1024 10 16.0934 0 0
2:27 pm 14:27 Cloudy 36 2 27 -3 70 70 NE 15 24 30.26 1025 10 16.0934 0 0
2:56 pm 14:56 Cloudy 35 1.7 28 -2.2 76 76 NE 14 22 30.24 1024 10 16.0934 0 0
3:56 pm 15:56 Cloudy 34 1.1 26 -3.3 73 73 ENE 13 20 30.25 1024 10 16.0934 0 0
4:56 pm 16:56 Cloudy 34 1.1 28 -2.2 79 79 NE 9 15 30.25 1024 10 16.0934 0 0
5:56 pm 17:56 Cloudy 33 0.6 28 -2.2 82 82 NE 10 17 30.25 1024 10 16.0934 0 0
6:56 pm 18:56 Cloudy 33 0.6 28 -2.2 82 82 NE 13 20 30.23 1024 10 16.0934 0 0
7:56 pm 19:56 Cloudy 32 0 28 -2.2 85 85 NNE 15 24 30.22 1023 10 16.0934 0 0
8:56 pm 20:56 Cloudy 31 -0.6 27 -2.8 85 85 NNE 13 20 30.23 1024 10 16.0934 0 0
9:56 pm 21:56 Cloudy 30 -1.1 27 -2.8 88 88 NNE 12 19 30.23 1024 10 16.0934 0 0
10:56 pm 22:56 Cloudy 30 -1.1 27 -2.8 88 88 NNE 13 20 30.22 1024 10 16.0934 0 0
11:56 pm 23:56 Cloudy 30 -1.1 26 -3.3 85 85 NE 9 15 30.22 1023 10 16.0934 0 0

Powered by AerisWeather